TimeEST,TemperatureF,Dew PointF,Humidity,Sea Level PressureIn,VisibilityMPH,Wind Direction,Wind SpeedMPH,Gust SpeedMPH,PrecipitationIn,Events,Conditions,WindDirDegrees,DateUTC
12:58 AM,46.8,26.1,44,30.14,10.0,SSE,6.9,-,N/A,,Scattered Clouds,160,2013-02-19 05:58:00
1:58 AM,45.3,28.2,51,30.11,10.0,SSE,6.9,-,N/A,,Mostly Cloudy,150,2013-02-19 06:58:00
2:58 AM,46.0,32.2,58,30.09,10.0,South,5.8,-,N/A,,Overcast,170,2013-02-19 07:58:00
3:39 AM,48.2,35.6,62,30.08,10.0,South,2.3,-,N/A,Rain,Light Rain,180,2013-02-19 08:39:00
3:51 AM,48.2,35.6,62,30.06,10.0,SSE,6.9,-,N/A,,Overcast,150,2013-02-19 08:51:00
3:58 AM,47.8,36.5,65,30.06,10.0,SSE,8.1,-,0.00,,Overcast,150,2013-02-19 08:58:00
4:01 AM,48.2,37.4,66,30.04,10.0,SSE,8.1,-,N/A,Rain,Light Rain,150,2013-02-19 09:01:00
4:16 AM,48.2,39.2,71,30.03,10.0,SSE,9.2,-,N/A,,Overcast,150,2013-02-19 09:16:00
4:33 AM,50.0,39.2,66,30.06,10.0,SSW,4.6,-,N/A,Rain,Light Rain,210,2013-02-19 09:33:00
4:48 AM,48.2,41.0,76,30.04,9.0,SSE,10.4,-,N/A,Rain,Rain,160,2013-02-19 09:48:00
4:58 AM,47.5,41.9,81,30.04,9.0,SSE,8.1,-,0.03,Rain,Light Rain,160,2013-02-19 09:58:00
5:03 AM,46.4,42.8,87,30.03,10.0,SSE,5.8,-,N/A,Rain,Light Rain,150,2013-02-19 10:03:00
5:58 AM,46.4,44.1,92,30.04,10.0,SSE,4.6,-,0.09,Rain,Light Rain,160,2013-02-19 10:58:00
6:28 AM,46.4,44.6,93,30.01,10.0,SE,8.1,-,N/A,,Overcast,130,2013-02-19 11:28:00
6:31 AM,46.4,44.6,93,30.01,10.0,SE,6.9,-,N/A,Rain,Light Rain,140,2013-02-19 11:31:00
6:42 AM,46.4,44.6,93,30.01,10.0,SE,6.9,-,N/A,,Overcast,140,2013-02-19 11:42:00
6:58 AM,45.7,44.6,96,30.02,10.0,SE,5.8,-,0.03,,Overcast,140,2013-02-19 11:58:00
7:22 AM,46.4,46.4,100,30.06,10.0,NW,17.3,20.7,N/A,Rain,Rain,310,2013-02-19 12:22:00
7:23 AM,46.4,46.4,100,30.06,10.0,NW,17.3,20.7,N/A,Rain,Rain,310,2013-02-19 12:23:00
7:28 AM,46.4,46.4,100,30.07,10.0,NW,15.0,20.7,N/A,Rain,Light Rain,310,2013-02-19 12:28:00
7:33 AM,46.4,46.4,100,30.07,10.0,WNW,10.4,-,N/A,Rain,Light Rain,300,2013-02-19 12:33:00
7:43 AM,46.4,46.4,100,30.08,10.0,NW,6.9,-,N/A,Rain,Light Rain,310,2013-02-19 12:43:00
7:58 AM,46.6,45.5,96,30.08,10.0,NE,2.3,-,0.02,Rain,Light Rain,40,2013-02-19 12:58:00
8:13 AM,46.4,46.4,100,30.07,7.0,East,2.3,-,N/A,Rain,Light Rain,90,2013-02-19 13:13:00
8:38 AM,46.4,46.4,100,30.05,5.0,SE,11.5,-,N/A,Rain,Light Rain,140,2013-02-19 13:38:00
8:58 AM,47.5,47.1,99,30.06,9.0,SSE,9.2,-,0.06,Rain,Light Rain,160,2013-02-19 13:58:00
9:23 AM,48.2,48.2,100,30.06,9.0,South,4.6,-,N/A,Rain,Light Rain,190,2013-02-19 14:23:00
9:24 AM,48.2,48.2,100,30.06,7.0,South,4.6,-,N/A,Rain,Light Rain,190,2013-02-19 14:24:00
9:58 AM,49.1,48.7,99,30.07,10.0,Variable,3.5,-,0.03,Rain,Light Rain,0,2013-02-19 14:58:00
10:03 AM,50.0,48.2,94,30.06,10.0,SE,8.1,-,N/A,Rain,Light Rain,140,2013-02-19 15:03:00
10:04 AM,50.0,50.0,100,30.06,10.0,SSE,8.1,-,N/A,,Overcast,150,2013-02-19 15:04:00
10:09 AM,50.0,50.0,100,30.05,10.0,South,5.8,-,N/A,,Overcast,170,2013-02-19 15:09:00
10:19 AM,50.0,50.0,100,30.07,10.0,NW,3.5,-,N/A,,Overcast,320,2013-02-19 15:19:00
10:39 AM,51.8,50.0,94,30.07,10.0,NW,3.5,-,N/A,,Overcast,310,2013-02-19 15:39:00
10:54 AM,51.8,50.0,94,30.08,10.0,NW,2.3,-,N/A,,Overcast,320,2013-02-19 15:54:00
10:58 AM,51.1,50.9,99,30.09,10.0,NNW,2.3,-,0.00,,Overcast,330,2013-02-19 15:58:00
11:13 AM,51.8,51.8,100,30.09,10.0,NNW,4.6,-,N/A,,Overcast,330,2013-02-19 16:13:00
11:38 AM,53.6,51.8,94,30.10,10.0,West,4.6,-,N/A,,Overcast,270,2013-02-19 16:38:00
11:53 AM,53.6,53.6,100,30.09,10.0,West,4.6,-,N/A,,Overcast,260,2013-02-19 16:53:00
11:58 AM,54.3,52.9,95,30.10,10.0,West,4.6,-,N/A,,Overcast,270,2013-02-19 16:58:00
12:18 PM,57.2,53.6,88,30.09,10.0,NW,9.2,-,N/A,,Overcast,310,2013-02-19 17:18:00
12:33 PM,57.2,51.8,82,30.09,10.0,WNW,9.2,-,N/A,,Overcast,300,2013-02-19 17:33:00
12:43 PM,57.2,51.8,82,30.09,10.0,WNW,9.2,-,N/A,,Overcast,290,2013-02-19 17:43:00
12:58 PM,58.1,51.8,80,30.10,10.0,WNW,10.4,-,N/A,,Overcast,290,2013-02-19 17:58:00
1:23 PM,60.8,51.8,72,30.07,10.0,West,9.2,-,N/A,,Overcast,280,2013-02-19 18:23:00
1:28 PM,60.8,50.0,68,30.07,10.0,West,15.0,19.6,N/A,,Overcast,280,2013-02-19 18:28:00
1:33 PM,60.8,50.0,68,30.07,10.0,WNW,15.0,19.6,N/A,,Overcast,290,2013-02-19 18:33:00
1:53 PM,62.6,48.2,59,30.07,10.0,WNW,10.4,-,N/A,,Mostly Cloudy,300,2013-02-19 18:53:00
1:58 PM,62.8,49.1,61,30.07,10.0,WNW,12.7,-,N/A,,Mostly Cloudy,300,2013-02-19 18:58:00
2:13 PM,62.6,48.2,59,30.06,10.0,WNW,12.7,-,N/A,,Scattered Clouds,300,2013-02-19 19:13:00
2:58 PM,64.6,44.6,48,30.06,10.0,WNW,15.0,19.6,N/A,,Clear,300,2013-02-19 19:58:00
3:58 PM,65.1,41.5,42,30.06,10.0,NW,19.6,23.0,N/A,,Clear,310,2013-02-19 20:58:00
4:10 PM,66.2,37.4,35,30.05,10.0,West,16.1,-,N/A,,Clear,280,2013-02-19 21:10:00
4:58 PM,65.1,31.5,28,30.07,10.0,NW,13.8,20.7,N/A,,Clear,310,2013-02-19 21:58:00
5:58 PM,61.5,28.8,29,30.08,10.0,WNW,12.7,-,N/A,,Clear,300,2013-02-19 22:58:00
7:58 PM,48.9,28.0,44,30.14,10.0,WNW,8.1,-,N/A,,Clear,300,2013-02-20 00:58:00
8:58 PM,41.5,29.1,61,30.14,10.0,WNW,8.1,-,N/A,,Clear,300,2013-02-20 01:58:00
9:58 PM,42.8,29.1,58,30.16,10.0,WNW,6.9,-,N/A,,Clear,290,2013-02-20 02:58:00
10:58 PM,38.3,28.0,67,30.18,10.0,NW,10.4,-,N/A,,Clear,310,2013-02-20 03:58:00
11:58 PM,38.7,25.9,60,30.18,10.0,NW,5.8,-,N/A,,Clear,310,2013-02-20 04:58:00